This is the latest recevied weather packets stored in our database for station/object vk4zu-13. If no packets are shown the sender has not sent any weather packets the latest 10 day(s).
| Time | Temp. | Humidity | Pressure | Rain* | Wind** | Luminosity | Snow |
|---|---|---|---|---|---|---|---|
| 1777432454 | 23.89° C | 71% | 1023.7 hPa | 0 mm | - | 148 W/m² | - |
| 1777432382 | 24.44° C | 74% | 1023.6 hPa | 0 mm | - | 531 W/m² | - |
| 1777432314 | 24.44° C | 75% | 1023.7 hPa | 0 mm | - | 531 W/m² | - |
| 1777432225 | 25° C | 74% | 1023.7 hPa | 0 mm | - | 543 W/m² | - |
| 1777432165 | 25° C | 67% | 1023.8 hPa | 0 mm | - | 838 W/m² | - |
| 1777432105 | 25.56° C | 65% | 1023.7 hPa | 0 mm | - | 838 W/m² | - |
| 1777431976 | 26.11° C | 61% | 1023.8 hPa | 0 mm | - | 838 W/m² | - |
| 1777431918 | 26.11° C | 60% | 1023.8 hPa | 0 mm | - | 798 W/m² | - |
| 1777431853 | 25.56° C | 62% | 1023.8 hPa | 0 mm | - | 803 W/m² | - |
| 1777431798 | 25.56° C | 63% | 1023.9 hPa | 0 mm | - | 793 W/m² | - |
| 1777431734 | 26.11° C | 62% | 1023.9 hPa | 0 mm | - | 726 W/m² | - |
| 1777431672 | 25.56° C | 65% | 1023.7 hPa | 0 mm | - | 721 W/m² | - |
| 1777431605 | 25.56° C | 62% | 1023.7 hPa | 0 mm | - | 719 W/m² | - |
| 1777431544 | 25.56° C | 61% | 1023.8 hPa | 0 mm | - | 724 W/m² | - |
| 1777431478 | 25.56° C | 62% | 1023.9 hPa | 0 mm | - | 728 W/m² | - |
| 1777431418 | 25.56° C | 62% | 1023.8 hPa | 0 mm | - | 724 W/m² | - |
| 1777431386 | 25.56° C | 61% | 1023.9 hPa | 0 mm | - | 745 W/m² | - |
| 1777431290 | 25.56° C | 62% | 1023.8 hPa | 0 mm | - | 738 W/m² | - |
| 1777431226 | 25.56° C | 63% | 1023.8 hPa | 0 mm | - | 744 W/m² | - |
| 1777431165 | 25.56° C | 64% | 1023.8 hPa | 0 mm | - | 744 W/m² | - |
| 1777431107 | 25° C | 63% | 1024 hPa | 0 mm | - | 745 W/m² | - |
| 1777431033 | 25° C | 62% | 1024 hPa | 0 mm | - | 745 W/m² | - |
| 1777430983 | 25° C | 61% | 1024.1 hPa | 0 mm | - | 752 W/m² | - |
| 1777430960 | 25° C | 63% | 1024 hPa | 0 mm | - | 798 W/m² | - |
| 1777430825 | 25° C | 62% | 1024.2 hPa | 0 mm | - | 798 W/m² | - |
* Rain latest hour (hover to see other rain measurements)
** Current wind speed in m/s (hover to see current wind gust speed)